| time (UTC) | temp F | wind direction | speed MPH | gust MPH | rain 1hr in | rain 24hr in | rain mn in | humidity % | barometer mb |
| 20260509212520 | 54 | 222 | 2.0 | 6.0 | 0.00 | 0.00 | 0.00 | 93 | |
| 20260509211521 | 54 | 225 | 2.0 | 3.0 | 0.00 | 0.00 | 0.00 | 96 | |
| 20260509210532 | 53 | 209 | 0.0 | 2.0 | 0.00 | 0.00 | 0.00 | 96 | |
| 20260509205532 | 53 | 285 | 1.0 | 3.0 | 0.00 | 0.00 | 0.00 | 98 | |
| 20260509204532 | 53 | 40 | 0.0 | 1.0 | 0.00 | 0.00 | 0.00 | 98 | |
| 20260509203613 | 53 | 0.0 | 0.0 | 0.00 | 0.00 | 0.00 | 98 | ||
| 20260509202533 | 52 | 0.0 | 0.0 | 0.00 | 0.00 | 0.00 | 98 | ||
| 20260509201518 | 52 | 352 | 0.0 | 1.0 | 0.00 | 0.00 | 0.00 | 98 | |
| 20260509200518 | 52 | 0.0 | 0.0 | 0.00 | 0.00 | 0.00 | 97 | ||
| 20260509195518 | 52 | 211 | 0.0 | 2.0 | 0.00 | 0.00 | 0.00 | 97 | |
| 20260509194518 | 52 | 0.0 | 0.0 | 0.00 | 0.00 | 0.00 | 97 | ||
| 20260509193517 | 52 | 0.0 | 0.0 | 0.00 | 0.00 | 0.00 | 97 | ||
| 20260509192517 | 52 | 154 | 0.0 | 2.0 | 0.00 | 0.00 | 0.00 | 97 | |
| 20260509191517 | 52 | 0.0 | 0.0 | 0.00 | 0.00 | 0.00 | 96 | ||
| 20260509190519 | 52 | 209 | 0.0 | 3.0 | 0.00 | 0.00 | 0.00 | 96 | |
| 20260509185542 | 52 | 206 | 0.0 | 1.0 | 0.00 | 0.00 | 0.00 | 95 | |
| 20260509184520 | 52 | 358 | 0.0 | 2.0 | 0.00 | 0.00 | 0.00 | 95 | |
| 20260509183518 | 52 | 279 | 0.0 | 1.0 | 0.00 | 0.00 | 0.00 | 94 | |
| 20260509182519 | 52 | 216 | 1.0 | 4.0 | 0.00 | 0.00 | 0.00 | 94 | |
| 20260509181538 | 52 | 347 | 0.0 | 2.0 | 0.00 | 0.00 | 0.00 | 95 | |
| 20260509180520 | 52 | 87 | 0.0 | 1.0 | 0.00 | 0.00 | 0.00 | 95 | |
| 20260509175519 | 52 | 291 | 0.0 | 2.0 | 0.00 | 0.00 | 0.00 | 95 | |
| 20260509174519 | 52 | 207 | 0.0 | 2.0 | 0.00 | 0.00 | 0.00 | 95 | |
| 20260509173518 | 52 | 71 | 0.0 | 3.0 | 0.00 | 0.00 | 0.00 | 96 | |
| 20260509172518 | 52 | 34 | 0.0 | 3.0 | 0.00 | 0.00 | 0.00 | 96 | |
| 20260509171541 | 52 | 276 | 1.0 | 4.0 | 0.00 | 0.00 | 0.00 | 96 | |
| 20260509170521 | 52 | 81 | 0.0 | 2.0 | 0.00 | 0.00 | 0.00 | 95 | |
| 20260509165519 | 52 | 268 | 1.0 | 5.0 | 0.00 | 0.00 | 0.00 | 95 | |
| 20260509164539 | 52 | 184 | 2.0 | 6.0 | 0.00 | 0.00 | 0.00 | 94 | |
| 20260509163519 | 52 | 191 | 1.0 | 3.0 | 0.00 | 0.00 | 0.00 | 94 | |
| 20260509162519 | 52 | 82 | 2.0 | 7.0 | 0.00 | 0.00 | 0.00 | 94 | |
| 20260509161519 | 52 | 210 | 2.0 | 5.0 | 0.00 | 0.00 | 0.00 | 95 | |
| 20260509160539 | 52 | 128 | 1.0 | 3.0 | 0.00 | 0.00 | 0.00 | 95 | |
| 20260509155519 | 52 | 168 | 2.0 | 6.0 | 0.00 | 0.00 | 0.00 | 95 | |
| 20260509154522 | 51 | 312 | 1.0 | 3.0 | 0.00 | 0.00 | 0.00 | 96 | |
| 20260509153521 | 51 | 307 | 1.0 | 3.0 | 0.00 | 0.00 | 0.00 | 96 | |
| 20260509152521 | 51 | 165 | 1.0 | 6.0 | 0.00 | 0.00 | 0.00 | 96 | |
| 20260509151542 | 51 | 98 | 1.0 | 4.0 | 0.00 | 0.00 | 0.00 | 97 | |
| 20260509150522 | 51 | 208 | 0.0 | 1.0 | 0.00 | 0.00 | 0.00 | 97 | |
| 20260509145522 | 50 | 67 | 0.0 | 1.0 | 0.00 | 0.00 | 0.00 | 98 | |
| 20260509144523 | 50 | 0.0 | 0.0 | 0.00 | 0.00 | 0.00 | 98 | ||
| 20260509143522 | 50 | 136 | 0.0 | 2.0 | 0.00 | 0.00 | 0.00 | 98 | |
| 20260509142522 | 50 | 0.0 | 0.0 | 0.00 | 0.00 | 0.00 | 98 | ||
| 20260509141524 | 50 | 248 | 0.0 | 1.0 | 0.00 | 0.00 | 0.00 | 99 | |
| 20260509140523 | 50 | 0.0 | 0.0 | 0.00 | 0.00 | 0.00 | 99 | ||
| 20260509135543 | 49 | 232 | 0.0 | 0.0 | 0.00 | 0.00 | 0.00 | 99 | |
| 20260509134523 | 49 | 67 | 0.0 | 2.0 | 0.00 | 0.00 | 0.00 | 99 | |
| 20260509133525 | 49 | 161 | 1.0 | 3.0 | 0.00 | 0.00 | 0.00 | 99 | |
| 20260509132523 | 49 | 99 | 1.0 | 3.0 | 0.00 | 0.00 | 0.00 | 99 | |
| 20260509131525 | 49 | 0.0 | 0.0 | 0.00 | 0.00 | 0.00 | 99 | ||
| 20260509130544 | 49 | 0.0 | 0.0 | 0.00 | 0.00 | 0.00 | 100 | ||
| 20260509125524 | 49 | 260 | 1.0 | 3.0 | 0.00 | 0.00 | 0.00 | 100 | |
| 20260509124524 | 48 | 0.0 | 0.0 | 0.00 | 0.00 | 0.00 | 99 | ||
| 20260509123524 | 48 | 320 | 0.0 | 1.0 | 0.00 | 0.00 | 0.00 | 99 | |
| 20260509122524 | 48 | 318 | 0.0 | 1.0 | 0.00 | 0.00 | 0.00 | 99 | |
| 20260509121544 | 47 | 0.0 | 0.0 | 0.00 | 0.00 | 0.00 | 99 | ||
| 20260509120524 | 47 | 44 | 0.0 | 1.0 | 0.00 | 0.00 | 0.00 | 99 | |
| 20260509115521 | 46 | 298 | 0.0 | 1.0 | 0.00 | 0.00 | 0.00 | 99 | |
| 20260509114518 | 46 | 12 | 0.0 | 1.0 | 0.00 | 0.00 | 0.00 | 99 | |
| 20260509113519 | 45 | 352 | 0.0 | 1.0 | 0.00 | 0.00 | 0.00 | 99 | |
| 20260509112539 | 45 | 305 | 0.0 | 1.0 | 0.00 | 0.00 | 0.00 | 99 | |
| 20260509111519 | 44 | 27 | 0.0 | 0.0 | 0.00 | 0.00 | 0.00 | 99 | |
| 20260509110519 | 44 | 0.0 | 0.0 | 0.00 | 0.00 | 0.00 | 99 | ||
| 20260509105519 | 43 | 0.0 | 0.0 | 0.00 | 0.00 | 0.00 | 99 | ||
| 20260509104519 | 43 | 58 | 0.0 | 0.0 | 0.00 | 0.00 | 0.00 | 99 | |
| 20260509103520 | 43 | 0.0 | 0.0 | 0.00 | 0.00 | 0.00 | 100 | ||
| 20260509102540 | 43 | 0.0 | 0.0 | 0.00 | 0.00 | 0.00 | 100 | ||
| 20260509101517 | 43 | 100 | 0.0 | 2.0 | 0.00 | 0.00 | 0.00 | 100 | |
| 20260509100520 | 43 | 0.0 | 0.0 | 0.00 | 0.00 | 0.00 | 100 | ||
| 20260509095540 | 43 | 288 | 0.0 | 2.0 | 0.00 | 0.00 | 0.00 | 99 | |
| 20260509094540 | 42 | 83 | 0.0 | 3.0 | 0.00 | 0.00 | 0.00 | 99 | |
| 20260509093517 | 42 | 0.0 | 0.0 | 0.00 | 0.00 | 0.00 | 99 | ||
| 20260509092518 | 42 | 42 | 0.0 | 0.0 | 0.00 | 0.00 | 0.00 | 99 | |
| 20260509091518 | 42 | 0.0 | 0.0 | 0.00 | 0.00 | 0.00 | 99 | ||
| 20260509090521 | 42 | 0.0 | 0.0 | 0.00 | 0.00 | 0.00 | 98 | ||
| 20260509085521 | 42 | 0.0 | 0.0 | 0.00 | 0.00 | 0.00 | 98 | ||
| 20260509084518 | 42 | 0.0 | 0.0 | 0.00 | 0.00 | 0.00 | 98 | ||
| 20260509083619 | 42 | 0.0 | 0.0 | 0.00 | 0.00 | 0.00 | 98 | ||
| 20260509082519 | 42 | 57 | 0.0 | 1.0 | 0.00 | 0.00 | 0.00 | 97 | |
| 20260509081519 | 42 | 58 | 0.0 | 1.0 | 0.00 | 0.00 | 0.00 | 97 | |
| 20260509080519 | 42 | 218 | 0.0 | 1.0 | 0.00 | 0.00 | 0.00 | 97 | |
| 20260509075519 | 42 | 280 | 0.0 | 1.0 | 0.00 | 0.00 | 0.00 | 97 | |
| 20260509074540 | 42 | 0.0 | 0.0 | 0.00 | 0.00 | 0.00 | 96 | ||
| 20260509073521 | 42 | 0.0 | 0.0 | 0.00 | 0.00 | 0.00 | 96 | ||
| 20260509072540 | 42 | 0.0 | 0.0 | 0.00 | 0.00 | 0.00 | 95 | ||
| 20260509071517 | 42 | 148 | 0.0 | 2.0 | 0.00 | 0.00 | 0.00 | 94 | |
| 20260509070520 | 42 | 0.0 | 0.0 | 0.00 | 0.00 | 0.00 | 93 | ||
| 20260509065520 | 42 | 0.0 | 0.0 | 0.00 | 0.00 | 0.00 | 92 | ||
| 20260509064520 | 42 | 0.0 | 0.0 | 0.00 | 0.00 | 0.00 | 92 | ||
| 20260509063521 | 42 | 0.0 | 0.0 | 0.00 | 0.00 | 0.00 | 90 | ||
| 20260509062518 | 42 | 117 | 0.0 | 1.0 | 0.00 | 0.00 | 0.00 | 89 | |
| 20260509061538 | 43 | 0.0 | 0.0 | 0.00 | 0.00 | 0.00 | 89 | ||
| 20260509060521 | 43 | 0.0 | 0.0 | 0.00 | 0.00 | 0.00 | 88 | ||
| 20260509055521 | 43 | 0.0 | 0.0 | 0.00 | 0.00 | 0.00 | 88 | ||
| 20260509054518 | 43 | 0.0 | 0.0 | 0.00 | 0.00 | 0.00 | 88 | ||
| 20260509053518 | 43 | 0.0 | 0.0 | 0.00 | 0.00 | 0.00 | 88 | ||
| 20260509052600 | 43 | 0.0 | 0.0 | 0.00 | 0.00 | 0.00 | 88 | ||
| 20260509051519 | 43 | 342 | 0.0 | 0.0 | 0.00 | 0.00 | 0.00 | 87 | |
| 20260509050519 | 43 | 151 | 0.0 | 2.0 | 0.00 | 0.00 | 0.00 | 88 | |
| 20260509045520 | 43 | 0.0 | 0.0 | 0.00 | 0.00 | 0.00 | 88 | ||
| 20260509044519 | 42 | 44 | 0.0 | 1.0 | 0.00 | 0.00 | 0.00 | 88 | |
| 20260509043519 | 42 | 135 | 0.0 | 1.0 | 0.00 | 0.00 | 0.00 | 89 | |
| 20260509042519 | 41 | 0.0 | 0.0 | 0.00 | 0.00 | 0.00 | 91 | ||
| 20260509041517 | 41 | 0.0 | 0.0 | 0.00 | 0.00 | 0.00 | 91 | ||
| 20260509040520 | 40 | 31 | 0.0 | 1.0 | 0.00 | 0.00 | 0.00 | 90 | |
| 20260509035520 | 41 | 0.0 | 0.0 | 0.00 | 0.00 | 0.00 | 90 | ||
| 20260509034521 | 41 | 329 | 0.0 | 0.0 | 0.00 | 0.00 | 0.00 | 90 | |
| 20260509033520 | 41 | 0.0 | 0.0 | 0.00 | 0.00 | 0.00 | 88 | ||
| 20260509032518 | 42 | 0.0 | 0.0 | 0.00 | 0.00 | 0.00 | 87 | ||
| 20260509031521 | 42 | 0.0 | 0.0 | 0.00 | 0.00 | 0.00 | 87 | ||
| 20260509030521 | 42 | 40 | 0.0 | 1.0 | 0.00 | 0.00 | 0.00 | 87 | |
| 20260509025518 | 42 | 0.0 | 0.0 | 0.00 | 0.00 | 0.00 | 86 | ||
| 20260509024518 | 43 | 0.0 | 0.0 | 0.00 | 0.00 | 0.00 | 84 | ||
| 20260509023519 | 44 | 0.0 | 0.0 | 0.00 | 0.00 | 0.00 | 82 | ||
| 20260509022518 | 44 | 0.0 | 0.0 | 0.00 | 0.00 | 0.00 | 81 | ||
| 20260509021519 | 45 | 0.0 | 0.0 | 0.00 | 0.00 | 0.00 | 80 | ||
| 20260509020520 | 46 | 0.0 | 0.0 | 0.00 | 0.00 | 0.00 | 77 | ||
| 20260509015519 | 46 | 0.0 | 0.0 | 0.00 | 0.00 | 0.00 | 76 | ||
| 20260509014520 | 47 | 0.0 | 0.0 | 0.00 | 0.00 | 0.00 | 75 | ||
| 20260509013519 | 48 | 0.0 | 0.0 | 0.00 | 0.00 | 0.00 | 73 | ||
| 20260509012520 | 48 | 0.0 | 0.0 | 0.00 | 0.00 | 0.00 | 73 | ||
| 20260509011603 | 49 | 0.0 | 0.0 | 0.00 | 0.00 | 0.00 | 70 | ||
| 20260509010520 | 49 | 0.0 | 0.0 | 0.00 | 0.00 | 0.00 | 68 | ||
| 20260509005520 | 50 | 0.0 | 0.0 | 0.00 | 0.00 | 0.00 | 66 | ||
| 20260509004520 | 50 | 0.0 | 0.0 | 0.00 | 0.00 | 0.00 | 65 | ||
| 20260509003517 | 51 | 0.0 | 0.0 | 0.00 | 0.00 | 0.00 | 61 | ||
| 20260509002538 | 52 | 0.0 | 0.0 | 0.00 | 0.00 | 0.00 | 61 | ||
| 20260509001541 | 52 | 0.0 | 0.0 | 0.00 | 0.00 | 0.00 | 58 | ||
| 20260509000543 | 53 | 54 | 0.0 | 1.0 | 0.00 | 0.00 | 0.00 | 56 | |
| 20260508235518 | 53 | 0.0 | 0.0 | 0.00 | 0.00 | 0.00 | 54 | ||
| 20260508234518 | 54 | 0.0 | 0.0 | 0.00 | 0.00 | 0.00 | 53 | ||
| 20260508233518 | 54 | 0.0 | 0.0 | 0.00 | 0.00 | 0.00 | 52 | ||
| 20260508232519 | 55 | 0.0 | 0.0 | 0.00 | 0.00 | 0.00 | 50 | ||
| 20260508231539 | 56 | 51 | 0.0 | 2.0 | 0.00 | 0.00 | 0.00 | 48 | |
| 20260508230540 | 56 | 82 | 0.0 | 2.0 | 0.00 | 0.00 | 0.00 | 47 | |
| 20260508225519 | 56 | 343 | 0.0 | 2.0 | 0.00 | 0.00 | 0.00 | 47 | |
| 20260508224519 | 57 | 317 | 3.0 | 6.0 | 0.00 | 0.00 | 0.00 | 46 | |
| 20260508223520 | 57 | 336 | 2.0 | 5.0 | 0.00 | 0.00 | 0.00 | 45 | |
| 20260508222520 | 57 | 303 | 3.0 | 6.0 | 0.00 | 0.00 | 0.00 | 46 | |
| 20260508221520 | 57 | 30 | 1.0 | 4.0 | 0.00 | 0.00 | 0.00 | 47 | |
| 20260508220520 | 56 | 353 | 1.0 | 5.0 | 0.00 | 0.00 | 0.00 | 47 | |
| 20260508215520 | 55 | 272 | 3.0 | 7.0 | 0.00 | 0.00 | 0.00 | 47 | |
| 20260508214518 | 55 | 304 | 3.0 | 6.0 | 0.00 | 0.00 | 0.00 | 47 | |
| 20260508213518 | 56 | 330 | 3.0 | 8.0 | 0.00 | 0.00 | 0.00 | 47 |